Location: Kott?ru
(16.6209°N, 80.6208°E)
Time: 16:31:03
(UTC+00:00)

Cosmos 2360 Rocket - Pass Details

Date: 18 September 2020
Orbit: 835 x 844 km, 71.0° (Epoch: 20 October)

Event Time Altitude Azimuth Distance (km) Brightness Sun altitude
Exits shadow 22:51:00 - 187° (S) 2,890 4.8 -23.5°
Reaches altitude 10° 22:52:10 10° 186° (S) 2,453 4.5 -23.2°
Maximum altitude 22:57:43 64° 105° (ESE) 928 2.6 -21.9°
Drops below altitude 10° 23:03:18 10° 25° (NNE) 2,458 5.0 -20.6°
Sets 23:05:46 0° 22° (NNE) 3,393 5.8 -20.0°
